[[{"header":{"parameterUnit":"m.s-1","parameterCategory":1,"la1":30.2991,"la2":30.254,"lo1":-89.0895,"lo2":-89.0444,"dy":0.0017,"dx":0.0017,"nx":28,"ny":28,"refTime":"2025-11-17T09:00:00:Z","depth":0,"parameterNumber":2,"parameterNumberName":"U-component_of_WINDS"},"data":[0,0,0,0,0,0,0,0,0,0,0,0,0,0,0,0,0,0,0,0,0,0,0,0,0,0,0,0,0,0,0,0,0,0,0,0,0,0,0,0,0,0,0,0,0,0,0,0,0,0,0,0,0,0,0,0,0,0,2.2358,2.2359,0,2.2422,2.2423,2.2423,2.239,2.2388,2.2386,2.2385,2.2449,2.2452,2.2456,0,0,0,0,0,0,0,0,0,0,0,0,0,2.2206,2.2209,2.2358,2.2359,2.2359,2.2422,2.2423,2.2423,2.239,2.2388,2.2386,2.2384,2.2448,2.2452,2.2456,0,0,0,0,0,0,0,0,0,0,0,0,0,2.2271,2.221,2.2358,2.235,2.235,2.2422,2.2423,2.2424,2.239,2.2388,2.2385,2.2383,2.2447,2.2452,2.2456,2.2539,0,0,2.2472,2.2474,0,0,0,0,0,0,0,0,2.2268,2.2277,2.2351,2.2351,2.2351,2.2395,2.2393,2.2462,2.2391,2.2375,2.2385,2.2382,2.2433,2.2439,2.2457,2.2542,2.2544,2.2472,2.2475,2.2477,2.2479,0,0,0,0,0,0,0,2.2263,2.2274,2.2383,2.2352,2.2352,2.2344,2.235,2.2406,2.2418,2.2376,2.2374,2.2382,2.2433,2.2452,2.2458,2.2545,2.2472,2.2476,2.2479,2.2481,2.2701,2.2704,0,0,0,0,0,0,2.2259,2.2271,2.2381,2.2385,2.2302,2.2348,2.2356,2.2384,2.2417,2.242,2.2384,2.238,2.2445,2.2452,2.246,2.2558,2.2477,2.2482,2.2485,2.2698,2.2702,2.2705,0,0,0,0,0,0,2.2256,2.2269,2.2379,2.2327,2.234,2.2354,2.2385,2.2386,2.2405,2.2423,2.2425,2.2402,2.2443,2.2453,2.2519,2.256,2.2484,2.2489,2.2695,2.2699,2.2703,2.2755,0,0,0,0,0,0,2.2252,2.2269,2.23,2.2328,2.2343,2.2437,2.2388,2.2389,2.2414,2.241,2.244,2.2442,2.2442,2.2512,2.2524,2.2565,2.2493,2.2691,2.2697,2.2702,2.275,2.276,2.277,0,0,0,0,0,2.2247,2.2312,2.2302,2.2315,2.2383,2.2439,2.2448,2.2446,2.2417,2.2449,2.2461,2.2441,2.2554,2.2519,2.2533,2.2576,2.2689,2.2695,2.2701,2.2745,2.2758,2.2769,0,0,0,0,0,0,2.2287,2.2315,2.2304,2.238,2.2408,2.2433,2.2473,2.246,2.2496,2.249,2.2486,2.2493,2.2562,2.2576,2.2537,2.2657,2.2617,2.2626,2.2645,2.2658,2.2668,2.2662,2.2497,0,0,0,0,0,2.2305,2.2348,2.2371,2.2436,2.245,2.246,2.2484,2.248,2.2508,2.252,2.2536,2.2564,2.2605,2.2633,2.2672,2.2752,2.2758,2.2788,2.2798,2.2807,2.2814,2.2857,2.2871,2.2726,2.2726,2.2726,0,0,2.2342,2.2362,2.239,2.2444,2.2465,2.251,2.2469,2.2519,2.2552,2.2527,2.259,2.2604,2.2635,2.2708,2.2741,2.2722,2.2856,2.2815,2.2821,2.2824,2.2865,2.2879,2.2891,2.273,2.2729,2.2729,0,0,2.2432,2.2452,2.2508,2.2531,2.2563,2.2569,2.2583,2.2611,2.2619,2.2683,2.2665,2.2705,2.2777,2.2799,2.282,2.2921,2.2904,2.2934,2.2986,2.3028,2.3039,2.3049,2.3084,2.3097,2.2942,2.2942,2.2942,0,2.2473,2.2541,2.2539,2.259,2.2614,2.2595,2.2652,2.2673,2.2717,2.2734,2.2712,2.2801,2.2821,2.2899,2.2924,2.2942,2.2957,2.2929,2.3038,2.3048,2.3057,2.3091,2.3104,2.2945,2.2945,2.2945,2.2944,0,2.259,2.2637,2.2679,2.2722,2.2751,2.2805,2.2811,2.2841,2.2836,2.2844,2.291,2.2933,2.2976,2.2995,2.299,2.3073,2.306,2.3038,2.2997,2.3074,2.3106,2.3119,2.295,2.2949,2.2948,2.2947,0,0,2.2705,2.2748,2.2763,2.2782,2.2817,2.2854,2.2907,2.295,2.2975,2.3007,2.3051,2.3113,2.3093,2.3117,2.3115,2.3152,2.3229,2.3125,2.3126,2.3143,2.3322,2.3337,2.3352,2.322,2.3222,2.3224,2.3319,0,2.2796,2.2889,2.289,2.2976,2.3019,2.3003,2.3049,2.3076,2.3086,2.3124,2.3135,2.3178,2.3149,2.3164,2.32,2.3212,2.3265,2.3206,2.326,2.3262,2.3251,2.3368,2.3384,2.3472,2.3331,2.3333,2.3335,0,2.2915,2.2951,2.3041,2.307,2.3089,2.313,2.317,2.3207,2.3237,2.3242,2.327,2.3262,2.3316,2.3275,2.335,2.3309,2.3332,2.3341,2.3345,2.3348,2.3302,2.3374,2.35,2.3513,2.3354,2.3353,2.3351,0,2.2989,2.3059,2.3122,2.314,2.3176,2.3205,2.3222,2.325,2.3276,2.3311,2.3328,2.3369,2.3391,2.3423,2.3426,2.3396,2.3501,2.3461,2.3506,2.3506,2.3527,2.3525,2.3658,2.3545,2.3544,2.3544,2.3544,0,2.309,2.3145,2.3156,2.3194,2.3256,2.3257,2.3318,2.3332,2.3357,2.3398,2.3387,2.3425,2.3429,2.3469,2.3472,2.3533,2.3543,2.3548,2.3548,2.3548,2.3547,2.3561,2.3555,2.3548,2.3547,2.3546,2.3546,0,2.3181,2.3191,2.3258,2.3288,2.3296,2.334,2.3365,2.3402,2.3412,2.3464,2.3476,2.3491,2.3537,2.3545,2.3599,2.3601,2.3674,2.3668,2.3663,2.3662,2.3706,2.3702,2.3851,2.387,2.3746,2.3747,2.3748,0,2.3244,2.3286,2.3321,2.3348,2.3366,2.3409,2.3436,2.3439,2.3468,2.3506,2.3538,2.3584,2.362,2.3695,2.371,2.3752,2.3746,2.3796,2.3752,2.3751,2.3745,2.3742,2.3746,2.3803,2.3805,2.3806,2.3807,0,2.3354,2.3357,2.3397,2.3438,2.3471,2.3504,2.3534,2.3557,2.3564,2.3597,2.3645,2.3673,2.3729,2.3774,2.3816,2.3832,2.3821,2.3821,2.3833,2.3833,2.3828,2.383,2.3685,2.3817,2.3816,2.3815,2.3815,2.3814,2.3433,2.3469,2.3499,2.3544,2.3568,2.3597,2.3633,2.3648,2.3688,2.3734,2.3734,2.3786,2.3815,2.387,2.389,2.3931,2.3915,2.3933,2.3937,2.3941,2.3945,2.3823,2.3939,2.3938,2.3938,2.3938,2.3938,0,2.3541,2.356,2.3601,2.3645,2.368,2.3668,2.3702,2.3731,2.3777,2.3807,2.3843,2.3898,2.3942,2.3961,2.4005,2.4033,2.4029,2.4045,2.4041,2.4045,2.3957,2.3942,2.4047,2.4047,2.4047,2.4047,2.4047,2.4047,2.3601,2.3663,2.367,2.3743,2.3762,2.3813,2.3833,2.3861,2.3884,2.3946,2.3982,2.3995,2.4021,2.4066,2.4106,2.411,2.4126,2.4144,2.4146,2.4063,2.4052,2.4041,2.4026,2.4148,2.4148,2.423,2.4231,2.4231]},{"header":{"parameterUnit":"m.s-1","parameterCategory":1,"la1":30.2991,"la2":30.254,"lo1":-89.0895,"lo2":-89.0444,"dy":0.0017,"dx":0.0017,"nx":28,"ny":28,"refTime":"2025-11-17T09:00:00:Z","depth":0,"parameterNumber":3,"parameterNumberName":"V-component_of_WINDS"},"data":[0,0,0,0,0,0,0,0,0,0,0,0,0,0,0,0,0,0,0,0,0,0,0,0,0,0,0,0,0,0,0,0,0,0,0,0,0,0,0,0,0,0,0,0,0,0,0,0,0,0,0,0,0,0,0,0,0,0,1.3158,1.3159,0,1.3225,1.3226,1.3227,1.3207,1.3205,1.3204,1.3203,1.3271,1.3274,1.3277,0,0,0,0,0,0,0,0,0,0,0,0,0,1.3012,1.3015,1.3158,1.3159,1.316,1.3225,1.3226,1.3227,1.3207,1.3205,1.3204,1.3202,1.327,1.3274,1.3278,0,0,0,0,0,0,0,0,0,0,0,0,0,1.3077,1.3016,1.3158,1.3158,1.3158,1.3225,1.3226,1.3227,1.3207,1.3205,1.3203,1.3201,1.3269,1.3274,1.3278,1.3349,0,0,1.3292,1.3295,0,0,0,0,0,0,0,0,1.3073,1.3082,1.3157,1.3158,1.3159,1.3205,1.32,1.3268,1.3208,1.3189,1.3203,1.32,1.3251,1.3257,1.3274,1.3352,1.3355,1.3293,1.3296,1.3298,1.3299,0,0,0,0,0,0,0,1.3069,1.3079,1.3185,1.3158,1.3159,1.3154,1.3161,1.3212,1.3231,1.319,1.3189,1.3197,1.3251,1.327,1.3276,1.3356,1.3293,1.3297,1.33,1.3302,1.3494,1.3496,0,0,0,0,0,0,1.3064,1.3076,1.3182,1.3187,1.311,1.3158,1.3166,1.3193,1.323,1.3234,1.3199,1.3196,1.3263,1.327,1.3278,1.3363,1.3298,1.3302,1.3305,1.3491,1.3494,1.3497,0,0,0,0,0,0,1.3061,1.3073,1.318,1.3131,1.3144,1.3163,1.3193,1.3195,1.3214,1.3237,1.324,1.3215,1.3261,1.3271,1.3331,1.3365,1.3304,1.3308,1.3489,1.3492,1.3496,1.3533,0,0,0,0,0,0,1.3057,1.3072,1.31,1.3132,1.3147,1.3232,1.3195,1.3198,1.3222,1.3219,1.3252,1.3256,1.3261,1.3324,1.3336,1.337,1.3312,1.3486,1.349,1.3494,1.3529,1.3537,1.3544,0,0,0,0,0,1.3051,1.3108,1.3101,1.3114,1.3181,1.3234,1.3243,1.3247,1.3225,1.3252,1.3267,1.3255,1.3359,1.3331,1.3343,1.338,1.3484,1.3489,1.3494,1.3525,1.3535,1.3544,0,0,0,0,0,0,1.3081,1.3112,1.3105,1.3174,1.3202,1.3231,1.3266,1.3258,1.3293,1.3288,1.3292,1.33,1.3361,1.3376,1.3344,1.3449,1.3418,1.3426,1.3437,1.3447,1.3455,1.345,1.3316,0,0,0,0,0,1.3095,1.3135,1.3161,1.3219,1.3233,1.3247,1.327,1.3271,1.33,1.3311,1.333,1.3358,1.3397,1.3423,1.346,1.353,1.3537,1.3561,1.3569,1.3576,1.3583,1.362,1.3631,1.3514,1.3514,1.3514,0,0,1.3125,1.3147,1.3173,1.3225,1.3247,1.3288,1.3257,1.3303,1.3333,1.3318,1.3376,1.339,1.3422,1.3487,1.3516,1.3501,1.3616,1.3582,1.3587,1.3591,1.3626,1.3637,1.3647,1.3517,1.3517,1.3516,0,0,1.3201,1.3222,1.3273,1.3294,1.3327,1.3336,1.3348,1.3378,1.3387,1.3445,1.3434,1.347,1.3537,1.356,1.358,1.3663,1.3653,1.3675,1.3716,1.3752,1.3761,1.3769,1.3798,1.3809,1.3681,1.3681,1.3682,0,1.3235,1.3297,1.3299,1.3346,1.3368,1.3356,1.3407,1.3428,1.3471,1.3487,1.3469,1.3552,1.3573,1.3642,1.3662,1.3679,1.3693,1.3671,1.376,1.3768,1.3775,1.3803,1.3814,1.3684,1.3684,1.3683,1.3683,0,1.3336,1.3379,1.3416,1.3457,1.3484,1.3532,1.3542,1.3569,1.3566,1.3577,1.3635,1.3658,1.37,1.3716,1.3715,1.3785,1.3775,1.3758,1.3727,1.3789,1.3815,1.3826,1.3687,1.3687,1.3686,1.3685,0,0,1.3434,1.3475,1.3488,1.3506,1.354,1.3574,1.3621,1.3661,1.3683,1.3713,1.3752,1.3808,1.3793,1.3816,1.3817,1.3848,1.3911,1.3828,1.3829,1.3842,1.399,1.4002,1.4014,1.3905,1.3907,1.3908,1.3987,0,1.3513,1.3595,1.3598,1.3674,1.3713,1.3701,1.3741,1.3767,1.3777,1.3811,1.3823,1.3862,1.384,1.3853,1.3884,1.3897,1.3941,1.3892,1.3941,1.3942,1.3934,1.4028,1.4041,1.4114,1.3997,1.3999,1.4,0,1.3616,1.3648,1.3727,1.3755,1.3771,1.3808,1.3844,1.3877,1.3905,1.391,1.3935,1.3931,1.3978,1.3945,1.4009,1.3975,1.3995,1.4005,1.4008,1.4013,1.3975,1.4035,1.4138,1.4149,1.4016,1.4015,1.4014,0,1.3679,1.3742,1.3797,1.3813,1.3847,1.3872,1.3887,1.3913,1.3936,1.3968,1.3983,1.4019,1.4039,1.4067,1.4073,1.4048,1.4137,1.4104,1.4142,1.4142,1.4162,1.4161,1.4269,1.4175,1.4175,1.4175,1.4174,0,1.3767,1.3816,1.3826,1.386,1.3914,1.3916,1.3969,1.3982,1.4005,1.4041,1.4032,1.4066,1.4071,1.4106,1.411,1.4162,1.4171,1.4176,1.4177,1.4177,1.4177,1.4191,1.4186,1.4177,1.4177,1.4176,1.4176,0,1.3846,1.3855,1.3915,1.3941,1.3948,1.3987,1.4009,1.4041,1.405,1.4096,1.4106,1.412,1.4161,1.4168,1.4216,1.4219,1.4281,1.4277,1.4272,1.4271,1.4309,1.4305,1.443,1.4446,1.4341,1.4342,1.4343,0,1.3902,1.3939,1.3969,1.3992,1.4008,1.4046,1.407,1.4073,1.4098,1.4131,1.4159,1.4198,1.423,1.4295,1.4309,1.4345,1.4341,1.4382,1.4347,1.4345,1.4341,1.4339,1.4343,1.4389,1.4391,1.4391,1.4392,0,1.4,1.4002,1.4036,1.4072,1.41,1.4128,1.4155,1.4175,1.4181,1.4209,1.425,1.4275,1.4323,1.4362,1.4397,1.4412,1.4403,1.4403,1.4414,1.4415,1.441,1.4413,1.4291,1.4401,1.44,1.4399,1.4399,1.4398,1.4069,1.4101,1.4127,1.4165,1.4185,1.421,1.4241,1.4253,1.4288,1.4327,1.4327,1.4371,1.4396,1.4443,1.446,1.4495,1.4482,1.4497,1.4501,1.4505,1.4508,1.4405,1.4501,1.4501,1.4501,1.45,1.45,0,1.4166,1.4181,1.4216,1.4254,1.4283,1.4272,1.4301,1.4326,1.4366,1.439,1.4421,1.4467,1.4504,1.4521,1.4557,1.4582,1.4578,1.4591,1.4589,1.4593,1.4518,1.4505,1.4593,1.4593,1.4593,1.4593,1.4593,1.4593,1.422,1.4273,1.4278,1.4341,1.4356,1.4399,1.4417,1.4439,1.4458,1.4511,1.4541,1.4552,1.4573,1.461,1.4643,1.4647,1.4661,1.4676,1.4677,1.4607,1.4598,1.4589,1.4577,1.4678,1.4679,1.4749,1.475,1.475]}]]